Weather History for MMHO - February, 2013

Change the Weather History Date:

Sunday, February 17, 2013

  Actual Average Record
Temperature  
Mean Temperature 65 °F -  
Max Temperature 82 °F 79 °F 95 °F (2014)
Min Temperature 48 °F 50 °F 41 °F (2008)
Growing Degree Days 15 (Base 50)    
Moisture  
Dew Point 22 °F    
Average Humidity 23    
Maximum Humidity 38    
Minimum Humidity 8    
Precipitation  
Precipitation 0.00 in - - ()
Sea Level Pressure  
Sea Level Pressure 29.95 in    
Wind  
Wind Speed 3 mph ()    
Max Wind Speed 12 mph    
Max Gust Speed -    
Visibility 10.0 miles    
Events      
Averages and records for this station are not official NWS values.
T = Trace of Precipitation, MM = Missing Value Source: Averaged Metar Reports

Daily Weather History Graph

Daily Weather History Graph

Search for Another Location

Airport or City:

Trip Planner

Search our weather history database for the weather conditions in past years. The results will help you decide how hot, cold, wet, or windy it might be!

Date:

Astronomy

Feb. 17, 2013 Rise Set
Actual Time 7:00 AM MST 6:15 PM MST
Civil Twilight 6:36 AM MST 6:39 PM MST
Nautical Twilight 6:09 AM MST 7:07 PM MST
Astronomical Twilight 5:41 AM MST 7:35 PM MST
Moon 11:33 AM MST (2/17) 12:38 AM MST (2/17)
Length of Visible Light 12h 03m
Length of Day
11h 14m
Waxing Crescent, 49% of the Moon is Illuminated
Feb 17
Waxing Crescent
Feb 17
First Quarter
Feb 25
Full
Mar 4
Last Quarter
Mar 11
New

Hourly Weather History & Observations

Time (MST) Temp. Dew Point Humidity Pressure Visibility Wind Dir Wind Speed Gust Speed Precip Events Conditions
12:44 AM 59.0 °F 26.6 °F 29% 29.97 in 10.0 mi Calm Calm - N/A   Scattered Clouds
1:42 AM 53.6 °F 24.8 °F 33% 29.97 in 10.0 mi Calm Calm - N/A   Scattered Clouds
2:42 AM 51.8 °F 24.8 °F 35% 29.95 in 10.0 mi Calm Calm - N/A   Scattered Clouds
3:44 AM 51.8 °F 26.6 °F 38% 29.95 in 10.0 mi Calm Calm - N/A   Scattered Clouds
4:52 AM 55.4 °F 24.8 °F 31% 29.94 in 10.0 mi Calm Calm - N/A   Clear
5:42 AM 53.6 °F 23.0 °F 30% 29.94 in 10.0 mi Calm Calm - N/A   Clear
6:45 AM 48.2 °F 23.0 °F 37% 29.96 in 10.0 mi Calm Calm - N/A   Clear
7:47 AM 50.0 °F 24.8 °F 37% 30.00 in 10.0 mi Calm Calm - N/A   Scattered Clouds
8:52 AM 59.0 °F 24.8 °F 27% 30.00 in 10.0 mi Calm Calm - N/A   Scattered Clouds
9:41 AM 64.4 °F 24.8 °F 22% 30.00 in 10.0 mi East 5.8 mph - N/A   Scattered Clouds
10:42 AM 71.6 °F 21.2 °F 15% 29.97 in 10.0 mi ESE 6.9 mph - N/A   Scattered Clouds
11:50 AM 75.2 °F 19.4 °F 12% 29.99 in 10.0 mi ESE 5.8 mph - N/A   Clear
12:51 PM 80.6 °F 17.6 °F 10% 29.97 in 10.0 mi South 6.9 mph - N/A   Clear
1:49 PM 82.4 °F 14.0 °F 8% 29.90 in 10.0 mi SW 9.2 mph - N/A   Clear
2:45 PM 82.4 °F 14.0 °F 8% 29.83 in 10.0 mi SW 11.5 mph - N/A   Clear
3:40 PM 82.4 °F 15.8 °F 8% 29.92 in 10.0 mi SW 9.2 mph - N/A   Clear
4:48 PM 82.4 °F 17.6 °F 9% 29.90 in 10.0 mi SW 11.5 mph - N/A   Partly Cloudy
5:51 PM 78.8 °F 17.6 °F 10% 29.93 in 10.0 mi SSW 11.5 mph - N/A   Partly Cloudy
6:41 PM 69.8 °F 17.6 °F 14% 29.94 in 10.0 mi SSW 5.8 mph - N/A   Scattered Clouds
7:46 PM 69.8 °F 21.2 °F 16% 29.94 in 10.0 mi South 6.9 mph - N/A   Scattered Clouds
8:51 PM 64.4 °F 23.0 °F 21% 29.95 in 10.0 mi NE 4.6 mph - N/A   Scattered Clouds
9:42 PM 57.2 °F 23.0 °F 27% 29.96 in 10.0 mi Calm Calm - N/A   Clear
10:46 PM 53.6 °F 24.8 °F 33% 29.97 in 10.0 mi Calm Calm - N/A   Clear
11:43 PM 53.6 °F 24.8 °F 33% 29.97 in 10.0 mi Calm Calm - N/A   Clear